"America/Chicago Time","Lifetime Energy (kWh)","Power (W)","AC Volts RMS (V) ","AC Amps RMS (mA)","Grid Frequency (Hz)","Inverter Temperature (C)"
"05/09/12 09:27:08","82.6385","142.4","217.91","658","60.03","22"
"05/09/12 09:32:08","82.6497","144.9","217.76","666","60.03","22"
"05/09/12 09:37:08","82.661","146.4","217.27","677","60.07","23"
"05/09/12 09:42:08","82.6725","150.8","217.92","691","60.03","23"
"05/09/12 09:47:08","82.6844","153.4","218.16","700","60.03","23"
"05/09/12 09:52:07","82.6963","155.0","217.15","711","60.03","24"
"05/09/12 09:57:08","82.7086","160.0","219.02","731","60.03","23"
"05/09/12 10:02:07","82.7212","162.6","218.51","742","60.07","24"
"05/09/12 10:07:08","82.7339","164.2","218.54","749","60.0","24"
"05/09/12 10:12:07","82.7466","169.1","217.88","770","60.0","24"
"05/09/12 10:17:08","82.76","171.1","218.79","779","60.03","24"
"05/09/12 10:22:08","82.7733","170.5","218.33","773","60.03","25"
"05/09/12 10:27:08","82.7867","171.7","217.9","783","60.0","25"
"05/09/12 10:32:07","82.8002","174.7","218.16","788","60.0","25"
"05/09/12 10:37:07","82.8139","176.8","218.68","801","60.03","25"
"05/09/12 10:42:08","82.8277","178.3","219.01","809","60.0","26"
"05/09/12 10:47:08","82.8417","180.1","218.56","811","60.03","26"
"05/09/12 10:52:08","82.8558","181.2","219.24","823","60.0","26"
"05/09/12 10:57:08","82.87","181.8","218.73","822","60.03","26"
"05/09/12 11:02:08","82.8842","184.3","219.42","834","60.0","26"
"05/09/12 11:07:09","82.8988","188.6","218.28","845","60.03","26"
"05/09/12 11:12:07","82.9132","188.3","219.23","848","60.03","26"
"05/09/12 11:17:08","82.928","187.7","218.39","852","60.0","26"
"05/09/12 11:22:08","82.9427","191.2","218.84","865","60.0","26"
"05/09/12 11:27:07","82.9576","191.7","219.16","865","60.03","26"
"05/09/12 11:32:08","82.9726","192.1","218.74","863","60.0","26"
"05/09/12 11:37:08","82.9876","191.5","217.77","863","60.0","27"
"05/09/12 11:42:07","83.0025","191.8","217.95","867","60.03","27"
"05/09/12 11:47:09","83.0175","194.9","218.48","877","60.03","28"
"05/09/12 11:52:08","83.0326","193.6","218.61","868","60.03","28"
"05/09/12 11:57:07","83.0478","194.9","218.0","882","60.07","28"
"05/09/12 12:02:07","83.0629","195.1","218.14","882","60.03","28"
"05/09/12 12:07:08","83.0783","195.3","219.07","881","60.03","28"
"05/09/12 12:12:07","83.0933","194.9","218.57","878","60.03","28"
"05/09/12 12:17:08","83.1086","195.6","218.84","880","60.03","27"
"05/09/12 12:22:08","83.1238","195.2","218.66","881","60.03","28"
"05/09/12 12:27:07","83.139","195.4","218.63","881","60.03","27"
"05/09/12 12:32:07","83.1542","195.3","218.23","881","60.0","27"
"05/09/12 12:37:09","83.1694","195.0","218.51","878","60.03","28"
"05/09/12 12:42:07","83.1845","195.4","217.64","882","60.0","28"
"05/09/12 12:47:07","83.1997","195.2","217.67","885","60.03","28"
"05/09/12 12:52:08","83.215","195.3","218.21","888","60.03","28"
"05/09/12 12:57:08","83.2301","195.8","219.04","881","60.0","27"
"05/09/12 13:02:09","83.2454","194.9","218.97","876","60.03","27"
"05/09/12 13:07:07","83.2605","192.9","218.85","871","60.07","27"
"05/09/12 13:12:08","83.2755","192.1","219.05","867","60.03","28"
"05/09/12 13:17:08","83.2904","191.5","217.46","869","60.0","28"
"05/09/12 13:22:09","83.3053","192.4","217.88","868","60.0","28"
"05/09/12 13:27:08","83.3203","191.7","217.72","869","60.03","28"
"05/09/12 13:32:07","83.3351","190.5","217.36","865","60.03","28"
"05/09/12 13:37:08","83.35","189.4","217.62","858","60.03","28"
"05/09/12 13:42:08","83.3647","187.3","217.72","851","60.03","28"
"05/09/12 13:47:08","83.3794","189.6","217.49","861","60.03","27"
"05/09/12 13:52:09","83.3941","185.9","217.17","844","60.03","27"
"05/09/12 13:57:08","83.4085","184.8","217.73","836","60.03","27"
"05/09/12 14:02:07","83.4227","183.9","217.2","832","60.0","27"
"05/09/12 14:07:07","83.4371","181.9","217.02","823","60.0","27"
"05/09/12 14:12:08","83.4511","180.8","216.78","822","60.0","27"
"05/09/12 14:17:07","83.4651","178.5","217.88","814","60.03","27"
"05/09/12 14:22:09","83.4791","176.8","217.92","804","60.03","26"
"05/09/12 14:27:07","83.4927","175.3","218.9","791","60.0","26"
"05/09/12 14:32:07","83.5061","171.2","218.19","780","60.0","27"
"05/09/12 14:37:08","83.5194","169.4","218.14","773","60.03","27"
"05/09/12 14:42:08","83.5326","167.0","218.44","766","60.03","27"
"05/09/12 14:47:07","83.5455","166.5","217.43","765","60.0","27"
"05/09/12 14:52:09","83.5586","166.3","217.15","760","60.0","26"
"05/09/12 14:57:08","83.5713","161.7","217.09","742","60.03","26"
"05/09/12 15:02:08","83.5838","158.6","216.95","732","60.07","26"
"05/09/12 15:07:08","83.5961","157.0","216.7","722","60.0","26"
"05/09/12 15:12:08","83.6082","152.1","218.09","695","60.0","26"
"05/09/12 15:17:08","83.6199","149.9","217.64","688","60.03","26"
"05/09/12 15:22:09","83.6316","147.6","217.44","681","60.0","26"
"05/09/12 15:27:07","83.643","144.7","218.1","668","60.0","26"
"05/09/12 15:32:09","83.6542","143.0","217.61","660","60.03","26"
"05/09/12 15:37:08","83.6652","140.1","218.06","643","60.03","26"
"05/09/12 15:42:07","83.6759","135.7","218.3","624","60.0","26"
"05/09/12 15:47:08","83.6864","133.2","217.36","619","60.0","26"
"05/09/12 15:52:08","83.6967","130.0","217.86","602","60.03","26"
"05/09/12 15:57:08","83.7067","127.7","218.21","597","60.03","26"
"05/09/12 16:02:08","83.7164","124.0","217.74","575","60.03","25"
"05/09/12 16:07:08","83.726","120.5","218.0","566","60.03","25"
"05/09/12 16:12:08","83.7352","116.1","217.44","550","60.03","25"
"05/09/12 16:17:08","83.7442","112.6","217.42","525","60.03","25"
"05/09/12 16:22:09","83.7528","109.0","216.76","517","60.03","25"
"05/09/12 16:27:08","83.7612","105.1","217.05","501","60.0","25"
"05/09/12 16:32:08","83.7692","102.3","216.87","487","60.0","24"
"05/09/12 16:37:07","83.777","98.6","215.55","473","60.0","24"
"05/09/12 16:42:08","83.7845","94.3","215.82","455","60.03","23"
"05/09/12 16:47:08","83.7917","90.5","216.1","439","60.03","23"
"05/09/12 16:52:08","83.7985","86.1","216.0","420","60.03","23"
"05/09/12 16:57:08","83.8051","81.3","216.1","400","60.03","23"
"05/09/12 17:02:08","83.8112","77.2","215.68","381","60.03","23"
"05/09/12 17:07:08","83.8171","73.0","215.79","363","60.0","23"
"05/09/12 17:12:11","83.8226","68.9","216.02","346","60.0","23"
"05/09/12 17:17:12","83.8278","64.3","215.13","328","60.0","22"
"05/09/12 17:22:11","83.8326","74.7","215.63","268","60.0","23"
"05/09/12 17:27:12","83.8367","60.4","215.7","337","60.03","22"
"05/09/12 17:32:13","83.8405","37.4","215.1","86","60.0","22"
"05/09/12 17:37:12","83.8443","40.0","214.32","286","60.03","22"
"05/09/12 17:42:11","83.8478","49.1","214.81","236","60.03","22"
"05/09/12 17:47:12","83.851","43.0","214.98","238","60.03","21"
"05/09/12 17:52:12","83.8536","37.9","214.12","289","60.03","21"
"05/09/12 17:57:13","83.8561","31.6","214.62","266","60.03","20"
"05/09/12 18:02:11","83.8583","32.4","214.84","28","60.03","20"
"05/09/12 18:07:13","83.8603","21.8","214.01","41","60.0","20"
"05/09/12 18:12:12","83.8619","26.4","214.31","55","60.03","19"
"05/09/12 18:17:12","83.8634","16.1","213.85","29","60.0","19"
"05/09/12 18:22:11","83.8645","14.0","213.29","20","60.0","19"
"05/09/12 18:27:12","83.8655","12.7","213.83","1","60.0","19"
"05/09/12 18:32:11","83.8663","13.5","213.74","0","60.0","19"
"05/09/12 18:37:12","83.8669","14.6","213.86","2","60.0","19"
"05/09/12 18:42:13","83.8674","13.3","213.8","36","60.03","18"
"05/09/12 18:47:11","83.8678","0.0","213.63","0","60.0","18"
"05/09/12 18:52:12","83.8681","0.0","212.46","0","60.0","18"
"05/09/12 18:57:13","83.8684","0.0","213.28","182","60.0","18"
"05/09/12 19:02:11","83.8686","0.0","214.04","2","60.03","18"
"05/09/12 19:07:13","83.8689","0.0","213.24","0","60.0","18"
"05/09/12 19:12:12","83.869","0.0","213.22","0","60.03","17"
"05/09/12 19:17:12","83.8691","0.0","213.33","0","60.03","16"
"05/10/12 06:12:14","83.8691","0.0","212.21","0","60.03","11"
"05/10/12 06:17:15","83.8691","0.0","213.06","0","60.03","11"
"05/10/12 06:22:12","83.8694","11.2","213.19","47","60.03","12"
"05/10/12 06:27:15","83.8698","14.6","213.69","6","60.03","13"
"05/10/12 06:32:15","83.8704","6.2","213.57","218","60.03","13"
"05/10/12 06:37:12","83.8712","14.3","213.58","250","60.03","13"
"05/10/12 06:42:12","83.8722","20.3","213.66","232","60.03","13"
"05/10/12 06:47:12","83.8734","24.8","213.5","295","60.07","13"
"05/10/12 06:52:12","83.8749","28.2","213.51","58","60.07","14"
"05/10/12 06:57:12","83.8766","33.9","214.18","304","60.07","15"
"05/10/12 07:02:13","83.8787","32.3","214.64","303","60.0","15"
"05/10/12 07:07:13","83.8809","27.5","214.09","135","60.03","15"
"05/10/12 07:12:13","83.8835","31.0","215.36","78","60.0","15"
"05/10/12 07:17:12","83.8864","38.3","214.88","125","60.03","16"
"05/10/12 07:22:13","83.8897","39.3","214.16","268","60.03","17"
"05/10/12 07:27:12","83.8932","38.5","214.36","355","60.03","17"
"05/10/12 07:32:13","83.8971","53.1","214.89","394","60.03","17"
"05/10/12 07:37:12","83.9014","67.7","213.96","163","60.0","18"
"05/10/12 07:42:12","83.9058","52.9","213.53","131","60.03","18"
"05/10/12 07:47:13","83.9107","65.4","213.83","331","60.0","18"
"05/10/12 07:52:12","83.916","69.9","215.65","349","60.07","18"
"05/10/12 07:57:13","83.9216","74.0","215.7","367","60.0","19"
"05/10/12 08:02:13","83.9275","78.1","215.96","385","60.03","19"
"05/10/12 08:07:12","83.9337","82.3","215.91","405","60.03","20"
"05/10/12 08:12:13","83.9402","86.2","215.67","420","60.03","20"
"05/10/12 08:17:13","83.9471","90.6","215.34","440","60.03","20"
"05/10/12 08:22:13","83.9543","94.8","214.96","457","60.0","21"
"05/10/12 08:27:14","83.9618","98.8","213.82","478","60.0","21"
"05/10/12 08:32:13","83.9697","102.3","214.56","494","60.03","22"
"05/10/12 08:37:12","83.9778","105.7","214.83","509","60.03","22"
"05/10/12 08:42:13","83.9862","110.0","215.2","523","60.0","23"
"05/10/12 08:47:13","83.9948","113.4","214.6","540","60.0","23"
"05/10/12 08:52:13","84.0038","117.2","214.06","550","60.03","23"
"05/10/12 08:57:13","84.0131","120.9","216.38","570","60.03","23"
"05/10/12 09:02:13","84.0226","124.3","215.8","582","60.03","24"
"05/10/12 09:07:13","84.0324","126.9","215.07","598","60.03","24"
"05/10/12 09:12:13","84.0424","130.1","215.9","611","60.03","25"
"05/10/12 09:17:13","84.0526","133.3","216.76","621","60.03","25"
"05/10/12 09:22:13","84.0632","136.6","216.83","635","60.03","25"
"05/10/12 09:27:13","84.0739","139.7","217.38","648","60.03","25"
"05/10/12 09:32:12","84.0849","142.9","217.19","664","60.03","26"
"05/10/12 09:37:13","84.0962","145.6","216.56","676","60.03","26"
"05/10/12 09:42:12","84.1075","147.5","217.29","682","60.03","26"
"05/10/12 09:47:12","84.1192","150.9","217.15","693","60.03","27"
"05/10/12 09:52:13","84.1311","153.5","217.35","708","60.03","27"
"05/10/12 09:57:12","84.143","154.3","216.49","713","60.03","28"
"05/10/12 10:02:12","84.1552","157.5","217.71","720","60.03","28"
"05/10/12 10:07:12","84.1676","159.8","217.25","733","60.03","28"
"05/10/12 10:12:13","84.1802","162.7","216.84","742","60.03","28"
"05/10/12 10:17:13","84.1929","164.0","218.2","748","60.0","29"
"05/10/12 10:22:12","84.2057","166.2","217.75","757","60.03","29"
"05/10/12 10:27:12","84.2187","167.8","218.5","763","60.03","29"
"05/10/12 10:32:14","84.2319","169.5","218.56","767","60.0","30"
"05/10/12 10:37:13","84.245","170.1","216.89","782","60.03","31"
"05/10/12 10:42:12","84.2584","172.8","217.84","787","60.03","31"
"05/10/12 10:47:13","84.2719","175.3","218.11","792","60.03","31"
"05/10/12 10:52:12","84.2856","176.3","218.16","803","60.03","31"
"05/10/12 10:57:12","84.2993","177.5","217.63","806","60.03","31"
"05/10/12 11:02:13","84.3132","179.0","218.68","814","60.03","32"
"05/10/12 11:07:13","84.3273","179.8","218.76","817","60.0","32"
"05/10/12 11:12:13","84.3413","181.1","218.88","817","60.03","32"
"05/10/12 11:17:12","84.3555","182.6","219.12","822","60.0","32"
"05/10/12 11:22:13","84.3698","183.8","219.12","826","60.03","32"
"05/10/12 11:27:13","84.3842","184.5","218.95","832","60.03","32"
"05/10/12 11:32:13","84.3986","185.2","218.6","843","60.0","32"
"05/10/12 11:37:13","84.4131","186.3","218.37","845","60.0","32"
"05/10/12 11:42:14","84.4277","186.6","218.22","844","60.03","33"
"05/10/12 11:47:13","84.4422","187.7","218.22","847","60.03","33"
"05/10/12 11:52:13","84.4569","188.1","219.07","846","60.03","33"
"05/10/12 11:57:14","84.4716","188.7","218.44","846","60.0","33"
"05/10/12 12:02:12","84.4862","189.4","218.79","854","60.0","33"
"05/10/12 12:07:14","84.501","190.3","218.17","864","60.03","33"
"05/10/12 12:12:12","84.5158","190.7","218.12","859","60.03","33"
"05/10/12 12:17:13","84.5307","190.4","218.03","858","60.03","33"
"05/10/12 12:22:12","84.5455","190.7","218.7","859","60.03","33"
"05/10/12 12:27:13","84.5603","190.6","218.24","860","60.03","33"
"05/10/12 12:32:13","84.5753","191.2","218.24","862","60.03","33"
"05/10/12 12:37:14","84.5901","190.2","218.74","859","60.03","34"
"05/10/12 12:42:13","84.6049","188.9","217.95","854","60.0","34"
"05/10/12 12:47:12","84.6196","189.7","217.89","859","60.03","34"
"05/10/12 12:52:12","84.6345","190.1","218.29","857","60.0","34"
"05/10/12 12:57:13","84.6492","189.3","218.6","853","60.03","34"
"05/10/12 13:02:13","84.664","187.0","218.22","842","60.0","34"
"05/10/12 13:07:13","84.6786","186.8","217.71","847","60.0","34"
"05/10/12 13:12:13","84.6931","187.0","218.59","842","60.0","34"
"05/10/12 13:17:13","84.7077","186.5","218.79","844","60.0","34"
"05/10/12 13:22:13","84.7221","184.4","217.99","840","60.07","34"
"05/10/12 13:27:13","84.7366","186.0","218.12","843","60.03","34"
"05/10/12 13:32:14","84.751","183.1","218.14","830","60.03","34"
"05/10/12 13:37:13","84.7653","182.2","218.42","825","60.03","35"
"05/10/12 13:42:13","84.7795","182.0","218.02","825","60.03","35"
"05/10/12 13:47:12","84.7935","180.1","218.67","815","60.03","35"
"05/10/12 13:52:13","84.8075","178.0","219.26","807","60.03","35"
"05/10/12 13:57:13","84.8212","175.9","219.32","796","60.03","35"
"05/10/12 14:02:13","84.835","175.0","219.17","798","60.0","36"
"05/10/12 14:07:12","84.8485","173.7","219.46","786","60.03","36"
"05/10/12 14:12:14","84.8621","173.1","218.73","782","60.0","36"
"05/10/12 14:17:12","84.8755","171.7","218.8","777","60.0","35"
"05/10/12 14:22:13","84.8889","170.6","218.73","769","60.03","35"
"05/10/12 14:27:12","84.902","168.5","219.26","766","60.03","35"
"05/10/12 14:32:13","84.9152","167.0","219.28","750","60.0","34"
"05/10/12 14:37:12","84.9281","164.7","219.18","746","60.0","34"
"05/10/12 14:42:13","84.9408","162.6","219.31","739","60.03","34"
"05/10/12 14:47:12","84.9533","159.9","219.09","729","60.03","34"
"05/10/12 14:52:14","84.9658","156.7","218.2","723","60.03","34"
"05/10/12 14:57:12","84.9779","156.5","217.91","715","60.03","34"
"05/10/12 15:02:13","84.99","154.8","218.24","706","60.03","33"
"05/10/12 15:07:13","85.0019","150.7","218.49","691","60.07","33"
"05/10/12 15:12:12","85.0135","149.3","218.48","681","60.03","33"
"05/10/12 15:17:13","85.0251","145.8","217.37","673","60.03","33"
"05/10/12 15:22:12","85.0364","145.1","218.71","666","60.03","33"
"05/10/12 15:27:13","85.0475","140.8","217.97","648","60.03","33"
"05/10/12 15:32:12","85.0584","138.8","217.88","640","60.03","32"
"05/10/12 15:37:13","85.0691","135.4","218.32","619","60.0","32"
"05/10/12 15:42:14","85.0795","132.4","217.58","615","60.03","32"
"05/10/12 15:47:12","85.0896","129.8","217.4","601","60.03","32"
"05/10/12 15:52:12","85.0997","126.8","217.29","591","60.0","32"
"05/10/12 15:57:14","85.1094","123.6","216.73","581","60.03","32"
"05/10/12 16:02:13","85.1189","120.5","217.03","564","60.0","31"
"05/10/12 16:07:13","85.1281","117.1","217.31","550","60.03","31"
"05/10/12 16:12:13","85.1371","113.1","217.38","536","60.03","31"
"05/10/12 16:17:12","85.1457","109.5","217.43","519","60.03","31"
"05/10/12 16:22:13","85.1541","105.3","217.28","496","60.03","31"
"05/10/12 16:27:13","85.1622","101.6","217.15","483","60.03","31"
"05/10/12 16:32:12","85.1699","98.2","216.67","469","60.0","31"
"05/10/12 16:37:14","85.1775","94.3","216.71","451","60.0","31"
"05/10/12 16:42:13","85.1847","91.0","216.69","438","60.0","30"
"05/10/12 16:47:13","85.1916","87.5","216.94","422","60.03","30"
"05/10/12 16:52:13","85.1982","83.3","216.83","403","60.03","30"
"05/10/12 16:57:12","85.2045","78.7","216.63","389","60.03","30"
"05/10/12 17:02:12","85.2104","74.2","216.7","370","60.07","30"
"05/10/12 17:07:13","85.2161","70.2","215.92","351","60.0","29"
"05/10/12 17:12:12","85.2214","65.7","216.69","328","60.03","30"
"05/10/12 17:17:12","85.2263","62.1","215.91","313","60.0","30"
"05/10/12 17:22:12","85.2306","61.7","215.6","126","60.0","30"
"05/10/12 17:27:13","85.2345","43.9","216.1","360","60.07","30"
"05/10/12 17:32:13","85.2385","56.5","215.98","265","60.03","29"
"05/10/12 17:37:14","85.2421","38.4","215.93","159","60.03","29"
"05/10/12 17:42:12","85.2454","35.0","215.96","175","60.03","29"
"05/10/12 17:47:13","85.2484","31.6","215.9","100","60.0","30"
"05/10/12 17:52:13","85.2511","37.4","215.5","263","60.03","29"
"05/10/12 17:57:14","85.2535","25.4","215.76","166","60.03","29"
"05/10/12 18:02:13","85.2557","25.6","215.59","36","60.03","29"
"05/10/12 18:07:13","85.2575","23.9","216.11","142","60.03","29"
"05/10/12 18:12:12","85.2591","24.9","214.29","166","60.03","29"
"05/10/12 18:17:12","85.2604","14.8","214.1","48","60.0","28"
"05/10/12 18:22:12","85.2615","13.7","213.66","20","60.03","27"
"05/10/12 18:27:13","85.2624","16.0","213.59","7","60.03","25"
"05/10/12 18:32:12","85.2632","15.4","214.28","0","60.0","25"
"05/10/12 18:37:13","85.2637","11.7","214.46","16","60.0","24"
"05/10/12 18:42:13","85.2642","14.1","213.83","5","60.03","23"
"05/10/12 18:47:14","85.2645","14.2","214.83","3","60.03","22"
"05/10/12 18:52:13","85.2648","0.0","214.39","0","60.03","22"
"05/10/12 18:57:14","85.265","0.0","213.96","0","60.03","21"
"05/10/12 19:07:13","85.2655","0.0","213.42","0","60.0","20"
"05/11/12 06:27:14","85.2656","0.0","213.09","0","60.0","13"
"05/11/12 06:32:12","85.2662","14.1","213.72","17","60.0","13"
"05/11/12 06:37:12","85.267","12.6","213.88","0","60.0","13"
"05/11/12 06:42:12","85.268","10.8","214.01","74","60.0","14"
"05/11/12 06:47:13","85.2692","16.0","214.03","7","60.03","15"
"05/11/12 06:52:14","85.2707","14.6","214.4","87","60.03","15"
"05/11/12 06:57:13","85.2724","16.7","214.47","18","60.07","16"
"05/11/12 07:02:13","85.2745","32.8","214.41","182","60.0","17"
"05/11/12 07:07:14","85.2768","36.1","214.09","149","60.0","17"
"05/11/12 07:12:14","85.2789","30.2","213.46","112","59.96","18"
"05/11/12 07:17:13","85.2814","41.7","214.39","137","60.0","18"
"05/11/12 07:22:14","85.2846","53.0","214.85","130","60.07","18"
"05/11/12 07:27:12","85.2877","34.2","214.59","161","60.03","19"
"05/11/12 07:32:14","85.2914","60.8","214.85","337","60.0","19"
"05/11/12 07:37:13","85.2957","53.0","214.57","359","60.03","19"
"05/11/12 07:42:12","85.3004","47.7","215.47","371","60.03","20"
"05/11/12 07:47:13","85.3033","33.9","214.04","105","60.0","20"
"05/11/12 07:52:14","85.3081","63.6","215.18","320","60.03","20"
"05/11/12 07:57:12","85.3139","80.7","215.69","398","60.0","21"
"05/11/12 08:02:13","85.3203","81.6","215.58","397","60.0","22"
"05/11/12 08:07:13","85.3264","78.7","214.8","390","60.03","22"
"05/11/12 08:12:13","85.3325","85.9","215.84","421","60.0","22"
"05/11/12 08:17:14","85.3394","90.1","216.16","438","60.0","23"
"05/11/12 08:22:14","85.3466","94.5","216.39","453","60.03","23"
"05/11/12 08:27:14","85.3539","83.1","216.43","404","60.03","24"
"05/11/12 08:32:12","85.3609","101.4","217.48","482","60.03","24"
"05/11/12 08:37:13","85.3687","102.5","216.02","493","60.0","25"
"05/11/12 08:42:14","85.3769","104.2","215.76","501","60.0","25"
"05/11/12 08:47:13","85.3853","110.5","216.32","525","60.03","26"
"05/11/12 08:52:14","85.394","112.4","216.14","532","60.03","26"
"05/11/12 08:57:13","85.4029","115.9","216.17","546","60.0","27"
"05/11/12 09:02:12","85.412","117.6","216.17","554","60.0","27"
"05/11/12 09:07:14","85.4213","122.1","217.23","574","60.03","27"
"05/11/12 09:12:13","85.431","126.2","216.89","591","60.03","28"
"05/11/12 09:17:12","85.4409","129.6","216.48","607","60.0","28"
"05/11/12 09:22:12","85.4511","131.5","216.4","612","60.03","29"
"05/11/12 09:27:13","85.4614","135.8","216.56","634","60.03","29"
"05/11/12 09:32:14","85.4722","137.7","215.86","644","60.0","29"
"05/11/12 09:37:14","85.483","140.4","215.57","657","60.03","30"
"05/11/12 09:42:13","85.4941","145.9","217.78","668","60.03","30"
"05/11/12 09:47:14","85.5054","142.9","217.33","661","60.03","31"
"05/11/12 09:52:14","85.5168","148.0","217.92","676","60.0","32"
"05/11/12 09:57:14","85.5279","136.0","216.95","632","60.03","32"
"05/11/12 10:02:13","85.5383","135.0","217.56","627","60.03","32"
"05/11/12 10:07:14","85.5493","145.0","217.51","670","60.0","32"
"05/11/12 10:12:13","85.5608","143.9","217.36","655","60.0","32"
"05/11/12 10:17:13","85.5724","152.2","218.9","696","60.03","32"
"05/11/12 10:22:14","85.5838","146.4","218.16","665","60.0","33"
"05/11/12 10:27:14","85.5946","133.8","217.7","622","60.03","33"
"05/11/12 10:32:13","85.6064","162.3","218.17","743","60.0","33"
"05/11/12 10:37:13","85.6191","164.9","218.24","755","60.0","34"
"05/11/12 10:42:14","85.6322","169.5","218.0","772","60.0","34"
"05/11/12 10:47:12","85.6454","168.8","218.27","767","60.03","35"
"05/11/12 10:52:13","85.6583","166.1","217.98","753","60.0","35"
"05/11/12 10:57:13","85.6714","172.3","218.85","782","60.07","36"
"05/11/12 11:02:13","85.6848","170.2","218.86","769","60.0","36"
"05/11/12 11:07:14","85.6982","172.5","219.35","783","60.0","37"
"05/11/12 11:12:13","85.7116","174.4","219.1","787","60.03","37"
"05/11/12 11:17:13","85.7254","176.0","218.82","796","60.07","37"
"05/11/12 11:22:14","85.739","176.6","218.67","797","60.03","38"
"05/11/12 11:27:14","85.7528","177.4","219.13","800","60.0","38"
"05/11/12 11:32:14","85.7665","178.0","219.6","809","60.03","38"
"05/11/12 11:37:14","85.7802","174.6","218.27","788","59.96","38"
"05/11/12 11:42:13","85.7934","167.9","218.89","763","60.03","37"
"05/11/12 11:47:14","85.8065","162.3","218.68","741","60.03","37"
"05/11/12 11:52:14","85.8192","162.2","218.69","735","60.0","37"
"05/11/12 11:57:14","85.8313","157.6","218.55","719","60.07","37"
"05/11/12 12:02:14","85.8435","156.0","217.77","719","60.0","37"
"05/11/12 12:07:13","85.8555","166.5","218.89","755","60.03","37"
"05/11/12 12:12:12","85.8688","165.8","218.71","755","60.03","37"
"05/11/12 12:17:13","85.8822","175.2","218.67","796","60.03","38"
"05/11/12 12:22:13","85.8958","172.5","217.97","785","60.03","38"
"05/11/12 12:27:14","85.9096","180.9","218.65","822","60.03","38"
"05/11/12 12:32:12","85.9237","176.0","217.69","792","60.0","39"
"05/11/12 12:37:12","85.9373","172.3","218.22","783","60.0","39"
"05/11/12 12:42:13","85.9509","178.7","218.4","809","60.0","39"
"05/11/12 12:52:14","85.976","173.1","217.96","786","60.03","39"
"05/11/12 12:57:13","85.9894","173.0","218.92","784","60.03","39"
"05/11/12 13:02:13","86.0035","177.3","218.38","808","60.03","39"
"05/11/12 13:07:14","86.0147","163.5","219.03","741","60.03","38"
"05/11/12 13:12:13","86.028","173.5","218.72","788","60.03","39"
"05/11/12 13:17:13","86.0402","179.4","218.64","813","60.0","38"
"05/11/12 13:22:13","86.0513","68.2","215.44","189","60.03","37"
"05/11/12 13:27:13","86.0555","59.4","216.37","106","60.03","35"
"05/11/12 13:32:14","86.0594","38.9","215.08","230","60.03","34"
"05/11/12 13:37:13","86.0621","26.3","214.98","153","60.03","33"
"05/11/12 13:42:14","86.0641","33.3","214.29","159","60.0","32"
"05/11/12 13:47:13","86.0658","12.0","214.31","28","60.03","31"
"05/11/12 13:52:14","86.0678","27.8","214.69","68","60.03","29"
"05/11/12 13:57:12","86.071","61.5","214.94","121","60.0","29"
"05/11/12 14:02:14","86.0763","87.5","215.78","424","60.03","28"
"05/11/12 14:07:13","86.0842","116.0","216.61","548","60.03","28"
"05/11/12 14:12:14","86.0903","45.0","215.05","277","60.03","28"